Zurück zum Katalog

BREEZE-M DEB

TANK

AktivHEO
NORAD 42944·DEBRIS·🇷🇺 Russia

Gestartet Sep 28, 2017 von Baikonur Cosmodrome

Loading…

Nächste Überflüge (nächste 24 Stunden)

TLE

AktuellSource: Space-Track

Epoche: Sep 13, 2026, 08:08 UTC

1 42944U 17057C   26256.33925855  .00003402  00000-0  89953-3 0  9990
2 42944  49.6359 244.3737 5101115   9.5515 357.3112  5.41846531172931

Verfolge BREEZE-M DEB in Echtzeit mit AllMySat

Download on the App Store